Location: Unspecified
(29.9680°N, 0.0000°E)
Time: 20:39:35
(UTC+00:00)

Vanguard 1 Rocket - Pass Details

Date: 20 June 2019
Orbit: 651 x 4225 km, 34.3° (Epoch: 18 July)

Event Time Altitude Azimuth Distance (km) Brightness Sun altitude
Rises 22:27:35 0° 288° (WNW) 4,469 11.5 -32.0°
Reaches altitude 10° 22:31:12 10° 287° (WNW) 3,039 10.5 -32.3°
Enters shadow 22:35:51 41° 282° (WNW) 1,245 8.2 -32.8°
